{"data":{"norad_id":65310,"epoch":"2026-09-21T22:39:01.062720Z","epoch_age_seconds":37330,"freshness":"FRESH","line1":"1 65310U 25187F   26264.94376230 -.00000110  00000+0  30087-4 0  9996","line2":"2 65310  50.0101 218.8304 0000744   4.4936 355.5943 13.29325490 52572","mean_motion":13.2932549,"eccentricity":7.44e-5,"inclination_deg":50.0101,"raan_deg":218.8304,"arg_perigee_deg":4.4936,"mean_anomaly_deg":355.5943,"bstar":3.0087e-5,"rev_number":5257,"period_min":108.32561406763,"perigee_km":1148.748455194,"apogee_km":1149.8685390839,"semimajor_km":7527.445497139,"source":"CELESTRAK","updated_at":"2026-09-22T09:00:30.257602Z"}}